MDT,Max TemperatureF,Mean TemperatureF,Min TemperatureF,Max Dew PointF,MeanDew PointF,Min DewpointF,Max Humidity, Mean Humidity, Min Humidity, Max Sea Level PressureIn, Mean Sea Level PressureIn, Min Sea Level PressureIn, Max VisibilityMiles, Mean VisibilityMiles, Min VisibilityMiles, Max Wind SpeedMPH, Mean Wind SpeedMPH, Max Gust SpeedMPH,PrecipitationIn, CloudCover, Events, WindDirDegrees
2013-5-1,53,37,21,22,16,11,88,54,19,30.63,30.53,30.34,10,10,10,16,7,20,0.00,2,,329
2013-5-2,62,45,28,24,19,15,69,43,17,30.64,30.50,30.31,10,10,10,16,7,22,0.00,1,,185
2013-5-3,71,56,40,27,23,18,43,30,16,30.30,30.14,30.05,10,10,10,21,10,26,0.00,3,,129
2013-5-4,66,57,48,31,24,19,42,31,19,30.27,30.21,30.12,10,10,10,21,7,25,0.00,4,,88
2013-5-5,68,52,36,25,21,17,56,36,16,30.27,30.17,30.06,10,10,10,16,5,23,0.00,0,,117
2013-5-6,75,56,37,30,27,24,64,41,17,30.07,29.98,29.88,10,10,10,15,7,20,0.00,0,,122
2013-5-7,82,66,49,34,30,25,46,31,16,29.89,29.82,29.76,10,10,10,16,8,22,0.00,0,,101
2013-5-8,76,60,44,40,37,31,76,51,25,30.12,30.03,29.88,10,10,10,18,10,23,0.00,0,,12
2013-5-9,73,59,45,44,39,34,68,52,35,30.17,30.11,30.06,10,10,10,15,9,25,0.00,1,,58
2013-5-10,75,57,39,45,32,19,85,52,19,30.38,30.21,30.08,10,10,10,31,11,38,0.00,3,,333
2013-5-11,70,53,35,31,25,24,64,42,19,30.43,30.28,30.10,10,10,10,12,6,16,0.00,0,,74
2013-5-12,87,65,42,44,36,25,53,36,18,30.09,29.93,29.79,10,10,10,17,8,21,0.00,0,,186
2013-5-13,92,74,55,45,42,39,62,39,15,29.88,29.75,29.49,10,10,10,35,8,41,T,0,,234
2013-5-14,77,65,53,53,35,25,89,52,15,29.88,29.80,29.57,10,10,9,35,13,46,0.00,0,Rain,325
2013-5-15,78,66,54,36,31,27,47,33,18,29.96,29.88,29.81,10,10,10,18,8,22,T,3,,347
2013-5-16,73,64,54,51,47,33,86,64,41,29.83,29.80,29.75,10,10,10,22,9,24,0.14,3,Rain,90
2013-5-17,70,61,51,54,50,43,96,68,39,29.87,29.82,29.77,10,10,6,17,5,20,0.06,4,Rain,30
2013-5-18,73,63,52,55,53,50,93,71,49,29.86,29.82,29.75,10,8,0,35,8,39,1.32,6,Fog-Rain-Thunderstorm,325
2013-5-19,63,57,51,55,51,44,93,73,52,29.93,29.84,29.78,10,9,2,24,14,30,0.22,8,Rain,11
2013-5-20,55,52,48,49,47,45,93,85,77,30.05,29.97,29.89,10,9,4,31,19,40,0.58,7,Rain,334
2013-5-21,58,53,47,49,44,38,93,74,55,30.05,30.02,30.00,10,9,2,26,11,32,0.06,6,Rain,34
2013-5-22,67,58,48,47,42,32,93,64,35,30.05,30.01,29.98,10,10,7,25,15,33,T,4,,91
2013-5-23,71,62,52,46,43,37,71,56,40,30.06,29.92,29.76,10,10,10,36,22,47,0.00,1,,124
2013-5-24,74,63,51,49,40,26,72,45,17,29.94,29.84,29.71,10,10,10,33,14,44,0.00,3,,279
2013-5-25,82,65,48,57,50,37,84,62,39,29.92,29.83,29.72,10,10,10,22,9,30,0.02,2,Rain-Thunderstorm,66
2013-5-26,79,67,55,57,54,50,87,65,42,29.93,29.85,29.72,10,10,8,32,9,43,0.10,2,Rain-Thunderstorm,100
2013-5-27,70,61,51,55,52,48,93,76,58,29.83,29.76,29.69,10,8,2,38,7,45,0.54,6,Rain-Thunderstorm,271
2013-5-28,74,61,48,54,49,46,96,67,38,29.71,29.66,29.61,10,10,10,13,6,17,0.01,0,,267
2013-5-29,69,63,56,58,55,53,93,78,63,29.65,29.58,29.52,10,8,2,20,10,23,1.22,8,Rain-Thunderstorm,29
2013-5-30,58,55,52,55,53,49,100,92,83,29.59,29.53,29.48,10,5,2,30,17,39,1.85,8,Rain,355
2013-5-31,55,52,48,54,51,46,100,92,83,30.10,29.74,29.56,10,7,2,28,17,37,0.57,8,Rain,319